{"data":{"norad_id":58784,"intl_designator":"2024-011V","name":"STARLINK-31039","alt_names":[],"object_type":"PAYLOAD","status":"ACTIVE","operator":null,"country":"US","launch_date":"2024-01-14","launch_site_code":"AFWTR","launch_vehicle":null,"mission":null,"orbit_class":"UNKNOWN","rcs_meters":null,"size_class":null,"mass_kg":null,"dimensions":null,"purposes":["comms"],"wikipedia_slug":null,"has_3d_model":false,"image_url":null,"decayed_at":null,"tle_current":{"epoch":"2026-05-25T01:45:10.771776Z","epoch_age_seconds":78912,"freshness":"FRESH","line1":"1 58784U 24011V   26145.07304134  .00000616  00000+0  32911-4 0  9992","line2":"2 58784  53.1603  18.9622 0001028  73.6855 286.4258 15.30198550131967","mean_motion":15.3019855,"eccentricity":0.0001028,"inclination_deg":53.1603,"raan_deg":18.9622,"arg_perigee_deg":73.6855,"mean_anomaly_deg":286.4258,"bstar":3.2911e-5,"rev_number":13196,"period_min":94.105434879676,"perigee_km":474.51487382358,"apogee_km":475.92392389918,"semimajor_km":6853.3563988614,"source":"CELESTRAK","updated_at":"2026-05-25T13:38:18.747688Z"}}}